• Join FlightAware (Why Join?)
  • Login
  • US Flag GB Flag 
02:35 EDT


 

Airport Tracker/Info


-or-


 

Live Flight TrackerFlight Track Log ✈ SWA1496 ✈ 20-Apr-2013 ✈ KELP - KDAL

Flight Track Log - Related Links

Times and Time Zones

All times are in EDT time to prevent confusion due to time zone crossing. See the SWA1496 flight status page for this flight to view local times or setup timezone preferences in your user account.

Time Position Orientation Groundspeed Altitude Reporting Facility
EDT Latitude Longitude Course Direction KTS MPH feet Rate Location/Type
19:50 31.7692 -106.4086 205° Southwest 233 268 5,900  Level Albuquerque Center
19:51 31.7325 -106.3356 121° Southeast 275 316 8,700 3,060 Climbing Albuquerque Center
19:52 31.7356 -106.2103 88° East 332 382 12,700 3,540 Climbing Albuquerque Center
19:53 31.7842 -106.1103 60° Northeast 350 403 16,000 2,400 Climbing Albuquerque Center
19:54 31.7856 -105.9761 89° East 411 473 17,700 2,160 Climbing Albuquerque Center
19:55 31.7831 -105.8242 91° East 459 528 20,500 2,340 Climbing Albuquerque Center
19:56 31.7806 -105.6647 91° East 484 557 22,600 1,980 Climbing Albuquerque Center
19:57 31.7711 -105.4956 94° East 512 589 24,600 1,920 Climbing Albuquerque Center
19:58 31.7603 -105.3231 94° East 527 606 26,600 1,860 Climbing Albuquerque Center
19:59 31.7511 -105.1467 93° East 536 617 28,500 1,140 Climbing Albuquerque Center
20:00 31.7633 -104.9689 85° East 544 626 29,000 1,080 Climbing Albuquerque Center
20:01 31.7850 -104.7922 82° East 545 627 30,800 1,860 Climbing Albuquerque Center
20:02 31.8042 -104.6142 83° East 547 629 32,900 1,980 Climbing Albuquerque Center
20:03 31.8281 -104.4036 82° East 542 624 34,900 1,560 Climbing Albuquerque Center
20:04 31.8472 -104.2264 83° East 545 627 36,100 1,260 Climbing Albuquerque Center
20:05 31.8658 -104.0458 83° East 552 635 37,600 1,260 Climbing Albuquerque Center
20:06 31.8853 -103.8514 83° East 558 642 38,700 660 Climbing Albuquerque Center
20:07 31.9047 -103.6739 83° East 553 636 39,000 120 Climbing Albuquerque Center
20:08 31.9217 -103.4978 83° East 545 627 39,000  Level Albuquerque Center
20:09 31.9400 -103.3219 83° East 545 627 39,000  Level Albuquerque Center
20:10 31.9567 -103.1456 84° East 545 627 39,000  Level Albuquerque Center
20:11 31.9747 -102.9564 84° East 547 629 39,000  Level Albuquerque Center
20:12 31.9914 -102.7781 84° East 548 631 39,000  Level Albuquerque Center
20:14 32.0083 -102.5944 84° East 551 634 39,000  Level Fort Worth Center
20:15 32.0258 -102.4167 83° East 551 634 39,000  Level Fort Worth Center
20:16 32.0433 -102.2389 83° East 551 634 39,000  Level Fort Worth Center
20:17 32.0583 -102.0656 84° East 545 627 39,000 -540 Level Fort Worth Center
20:18 32.0750 -101.8900 84° East 539 620 38,000 -960 Descending Fort Worth Center
20:19 32.0897 -101.7117 84° East 539 620 37,100 -540 Descending Fort Worth Center
20:20 32.1061 -101.5311 84° East 539 620 37,000 -60 Descending Fort Worth Center
20:21 32.1203 -101.3503 85° East 544 626 37,000  Level Fort Worth Center
20:22 32.1361 -101.1694 84° East 550 633 37,000  Level Fort Worth Center
20:23 32.1478 -100.9908 86° East 550 633 37,000  Level Fort Worth Center
20:24 32.1589 -100.8144 86° East 545 627 37,000  Level Fort Worth Center
20:25 32.1739 -100.6358 84° East 545 627 37,000  Level Fort Worth Center
20:26 32.1869 -100.4572 85° East 545 627 37,000  Level Fort Worth Center
20:27 32.2017 -100.2736 85° East 545 627 37,000  Level Fort Worth Center
20:28 32.2139 -100.0947 85° East 550 633 37,000  Level Fort Worth Center
20:29 32.2239 -99.9183 86° East 550 633 37,000  Level Fort Worth Center
20:30 32.2314 -99.7367 87° East 550 633 37,000 -300 Level Fort Worth Center
20:31 32.2347 -99.5600 89° East 550 633 36,500 -780 Descending Fort Worth Center
20:32 32.2586 -99.3764 81° East 555 639 35,500 -1,500 Descending Fort Worth Center
20:33 32.2800 -99.1972 82° East 555 639 33,500 -2,100 Descending Fort Worth Center
20:34 32.3011 -99.0208 82° East 550 633 31,300 -2,160 Descending Fort Worth Center
20:35 32.3200 -98.8514 82° East 538 619 29,200 -2,160 Descending Fort Worth Center
20:36 32.3403 -98.6944 81° East 497 572 27,000 -2,160 Descending Fort Worth Center
20:37 32.3586 -98.5350 82° East 487 560 24,900 -2,100 Descending Fort Worth Center
20:38 32.3744 -98.3703 83° East 467 537 22,800 -2,100 Descending Fort Worth Center
20:39 32.3903 -98.2303 82° East 448 516 20,800 -1,860 Descending Fort Worth Center
20:40 32.4056 -98.0925 82° East 430 495 19,100 -1,800 Descending Fort Worth Center
20:41 32.4189 -97.9647 83° East 403 464 17,300 -1,800 Descending Fort Worth Center
20:42 32.4339 -97.8392 82° East 388 447 15,500 -1,680 Descending Fort Worth Center
20:43 32.4467 -97.7211 83° East 378 435 14,000 -1,560 Descending Fort Worth Center
20:44 32.4575 -97.6031 84° East 364 419 12,400 -1,500 Descending Fort Worth Center
20:45 32.4825 -97.4972 74° East 341 392 11,000 -720 Descending Fort Worth Center
20:46 32.5431 -97.4183 48° Northeast 314 361 11,000  Level Fort Worth Center
20:47 32.6058 -97.3419 46° Northeast 314 361 11,000  Level Fort Worth Center
20:48 32.6683 -97.2653 46° Northeast 314 361 11,000  Level Fort Worth Center
20:49 32.7308 -97.1936 44° Northeast 313 360 11,000  Level Fort Worth Center
20:50 32.7978 -97.1761 12° North 258 297 11,000 -780 Level Fort Worth Center
20:51 32.8667 -97.1783 358° North 238 274 9,500 -1,740 Descending Fort Worth Center
20:52 32.9081 -97.1189 50° Northeast 218 251 7,600 -1,800 Descending Fort Worth Center
20:53 32.9289 -97.0472 71° East 218 251 6,000 -1,560 Descending Fort Worth Center
20:54 32.9453 -96.9900 71° East 198 228 4,500 -1,320 Descending Fort Worth Center
20:55 32.9369 -96.9481 103° East 166 191 3,400 -1,260 Descending Fort Worth Center
20:56 32.9000 -96.9167 144° Southeast 130 150 1,800 -1,380 Descending Dallas / Fort Worth TRACON
20:58 32.8471 -96.8518 107° East  Level Estimated
21:05 32.8471 -96.8518 107° East  Level Estimated
21:06 32.8471 -96.8518 107° East  Level Estimated